Lid_Strength_Index
1 1 1 1 1 1 1 1 0 0 0 0 0 0 0 0 0 1 1 1 1 1
1 1 1 1 1 1 0 0 0 0 0 0 0 0 0 1 1 1 1 1 1 1
1 1 1 1 1 1 1 0 0 0 0 0 0 0 1 1 1 1 1 1 2 1
1 1 1 1 1 1 0 0 0 0 0 1 1 0 1 1 1 1 1 1 1 1
1 1 1 1 1 0 1 0 0 0 1 1 1 0 1 1 1 1 1 1 1 1
1 1 1 1 1 0 0 0 0 0 1 1 1 1 0 1 1 1 1 1 1 1
2 1 1 1 1 1 1 1 1 1 1 0 0 0 0 0 1 1 1 1 1 1
1 1 1 1 1 1 0 0 0 1 1 0 3 4 4 3 1 1 1 1 0 0
1 1 1 1 1 1 1 1 1 1 1 3 4 6 5 4 2 1 1 1 1 1
2 2 1 1 1 1 1 2 1 1 4 6 8 8 8 5 2 1 1 1 1 1
1 2 1 1 1 2 1 2 2 3 5 7 9 9 8 6 3 1 2 1 2 3
1 2 1 2 1 1 2 2 3 3 5 8 10 9 7 3 2 1 3 5 3 5
1 2 2 1 1 1 2 3 4 6 7 8 10 9 9 7 4 4 4 6 7 7
1 1 1 1 2 3 3 3 5 7 6 8 9 10 10 9 8 6 3 4 6 7